• în România
  • Lista ţărilor
  • Pe 7 zile
  • Temperatura apei
  • Hartă satelitară
  • Meteo pe hartă
  • Widget-uri
  • user-avatar
    Intrare

    Meteo pe oră la Klagenfurt

    Astăzi, 22 Ianuarie, Luni

    Timp Temperatura Precipitaţii Vânt Presiune Umiditate
    00:00 -3°C° 0 mm 1 m/s 688 mmHg 75%
    01:00 -5°C° 0 mm 2 m/s 687 mmHg 74%
    02:00 -3°C° 0 mm 1 m/s 687 mmHg 76%
    03:00 -3°C° 0 mm 1 m/s 687 mmHg 77%
    04:00 -4°C° 0 mm 0 m/s 687 mmHg 79%
    05:00 -4°C° 0,1 mm 0 m/s 687 mmHg 79%
    06:00 -4°C° 0,1 mm 0 m/s 687 mmHg 79%
    07:00 -2°C° 0,1 mm 1 m/s 687 mmHg 79%
    08:00 -2°C° 0,1 mm 1 m/s 687 mmHg 76%
    09:00 -1°C° 0,1 mm 1 m/s 687 mmHg 72%
    10:00 0°C° 0,1 mm 1 m/s 687 mmHg 69%
    11:00 +1°C° 0 mm 1 m/s 687 mmHg 67%
    12:00 +2°C° 0 mm 1 m/s 686 mmHg 64%
    13:00 +1°C° 0 mm 2 m/s 686 mmHg 61%
    14:00 +1°C° 0 mm 2 m/s 686 mmHg 65%
    15:00 +2°C° 0 mm 1 m/s 685 mmHg 69%
    16:00 +1°C° 0 mm 1 m/s 685 mmHg 73%
    17:00 +1°C° 0 mm 1 m/s 685 mmHg 76%
    18:00 0°C° 0 mm 1 m/s 685 mmHg 79%
    19:00 -1°C° 0 mm 1 m/s 684 mmHg 82%
    20:00 -1°C° 0 mm 1 m/s 685 mmHg 82%
    21:00 -1°C° 0 mm 1 m/s 685 mmHg 83%
    22:00 -1°C° 0 mm 1 m/s 686 mmHg 83%
    23:00 -1°C° 0 mm 1 m/s 686 mmHg 83%

    Mâine, 23 Ianuarie, Marţi

    Timp Temperatura Precipitaţii Vânt Presiune Umiditate
    00:00 -1°C° 0 mm 1 m/s 686 mmHg 84%
    01:00 -1°C° 0 mm 1 m/s 687 mmHg 84%
    02:00 -1°C° 0 mm 1 m/s 687 mmHg 84%
    03:00 0°C° 0 mm 1 m/s 688 mmHg 85%
    04:00 0°C° 0 mm 1 m/s 688 mmHg 85%
    05:00 0°C° 0 mm 1 m/s 689 mmHg 85%
    06:00 0°C° 0 mm 1 m/s 689 mmHg 84%
    07:00 0°C° 0 mm 1 m/s 690 mmHg 84%
    08:00 +1°C° 0 mm 1 m/s 691 mmHg 81%
    09:00 +3°C° 0 mm 1 m/s 692 mmHg 77%
    10:00 +4°C° 0 mm 1 m/s 693 mmHg 73%
    11:00 +5°C° 0 mm 1 m/s 693 mmHg 70%
    12:00 +6°C° 0 mm 1 m/s 694 mmHg 67%
    13:00 +7°C° 0 mm 1 m/s 694 mmHg 63%
    14:00 +6°C° 0 mm 1 m/s 694 mmHg 68%
    15:00 +5°C° 0 mm 1 m/s 694 mmHg 73%
    16:00 +4°C° 0 mm 1 m/s 695 mmHg 77%
    17:00 +3°C° 0 mm 1 m/s 695 mmHg 81%
    18:00 +2°C° 0 mm 1 m/s 695 mmHg 84%
    19:00 0°C° 0 mm 1 m/s 695 mmHg 87%
    20:00 0°C° 0 mm 1 m/s 696 mmHg 87%
    21:00 0°C° 0 mm 1 m/s 696 mmHg 87%
    22:00 0°C° 0 mm 1 m/s 696 mmHg 88%
    23:00 0°C° 0 mm 1 m/s 696 mmHg 87%

    Poimâine, 24 Ianuarie, Miercuri

    Timp Temperatura Precipitaţii Vânt Presiune Umiditate
    00:00 -1°C° 0 mm 1 m/s 696 mmHg 87%
    01:00 -1°C° 0 mm 1 m/s 696 mmHg 87%
    02:00 -1°C° 0 mm 1 m/s 696 mmHg 87%
    03:00 0°C° 0 mm 1 m/s 696 mmHg 87%
    04:00 0°C° 0 mm 1 m/s 696 mmHg 86%
    05:00 0°C° 0 mm 1 m/s 696 mmHg 86%
    06:00 0°C° 0 mm 1 m/s 696 mmHg 85%
    07:00 0°C° 0 mm 1 m/s 696 mmHg 85%
    08:00 +1°C° 0 mm 1 m/s 697 mmHg 81%
    09:00 +3°C° 0 mm 1 m/s 697 mmHg 78%
    10:00 +3°C° 0 mm 0 m/s 697 mmHg 74%
    11:00 +5°C° 0 mm 1 m/s 697 mmHg 72%
    12:00 +6°C° 0 mm 1 m/s 697 mmHg 70%
    13:00 +7°C° 0 mm 1 m/s 697 mmHg 69%
    14:00 +7°C° 0 mm 1 m/s 697 mmHg 73%
    15:00 +6°C° 0 mm 1 m/s 697 mmHg 78%
    16:00 +5°C° 0 mm 1 m/s 696 mmHg 82%
    17:00 +4°C° 0 mm 1 m/s 696 mmHg 85%
    18:00 +3°C° 0 mm 1 m/s 696 mmHg 87%
    19:00 +2°C° 0 mm 1 m/s 696 mmHg 89%
    20:00 +2°C° 0 mm 1 m/s 696 mmHg 89%
    21:00 +1°C° 0 mm 1 m/s 696 mmHg 89%
    22:00 +1°C° 0 mm 1 m/s 695 mmHg 89%
    23:00 +1°C° 0 mm 1 m/s 695 mmHg 89%

    25 Ianuarie, Joi

    Timp Temperatura Precipitaţii Vânt Presiune Umiditate
    00:00 +1°C° 0 mm 1 m/s 695 mmHg 89%
    01:00 0°C° 0 mm 1 m/s 695 mmHg 88%
    02:00 0°C° 0 mm 1 m/s 694 mmHg 88%
    03:00 0°C° 0 mm 1 m/s 694 mmHg 88%
    04:00 0°C° 0 mm 1 m/s 694 mmHg 88%
    05:00 0°C° 0 mm 1 m/s 694 mmHg 89%
    06:00 0°C° 0 mm 1 m/s 693 mmHg 89%
    07:00 0°C° 0 mm 1 m/s 693 mmHg 90%
    08:00 -1°C° 0 mm 2 m/s 693 mmHg 88%
    09:00 +2°C° 0 mm 2 m/s 693 mmHg 85%
    10:00 +3°C° 0 mm 2 m/s 693 mmHg 83%
    11:00 +4°C° 0 mm 2 m/s 693 mmHg 82%
    12:00 +4°C° 0 mm 2 m/s 692 mmHg 81%
    13:00 +4°C° 0 mm 3 m/s 692 mmHg 79%
    14:00 +4°C° 0 mm 3 m/s 691 mmHg 82%
    15:00 +4°C° 0 mm 2 m/s 691 mmHg 84%
    16:00 +4°C° 0 mm 2 m/s 691 mmHg 86%
    17:00 +3°C° 0 mm 2 m/s 691 mmHg 88%
    18:00 +3°C° 0 mm 2 m/s 691 mmHg 90%
    19:00 +2°C° 0 mm 2 m/s 690 mmHg 92%
    20:00 +2°C° 0 mm 2 m/s 690 mmHg 92%
    21:00 +2°C° 0 mm 2 m/s 690 mmHg 92%
    22:00 +2°C° 0 mm 2 m/s 690 mmHg 92%
    23:00 +2°C° 0,1 mm 2 m/s 690 mmHg 92%

    26 Ianuarie, Vineri

    Timp Temperatura Precipitaţii Vânt Presiune Umiditate
    00:00 +2°C° 0,1 mm 2 m/s 690 mmHg 92%
    01:00 +2°C° 0,1 mm 2 m/s 690 mmHg 93%
    02:00 +3°C° 0,1 mm 2 m/s 690 mmHg 93%
    03:00 +3°C° 0,1 mm 2 m/s 689 mmHg 93%
    04:00 +3°C° 0,1 mm 2 m/s 689 mmHg 94%
    05:00 +3°C° 0,1 mm 2 m/s 689 mmHg 94%
    06:00 +3°C° 0,1 mm 2 m/s 689 mmHg 94%
    07:00 +4°C° 0,1 mm 1 m/s 689 mmHg 94%
    08:00 +4°C° 0,3 mm 1 m/s 689 mmHg 94%
    09:00 +5°C° 0,3 mm 1 m/s 689 mmHg 93%
    10:00 +5°C° 0,3 mm 1 m/s 689 mmHg 92%
    11:00 +5°C° 0,6 mm 1 m/s 689 mmHg 92%
    12:00 +5°C° 0,6 mm 2 m/s 689 mmHg 92%
    13:00 +5°C° 0,6 mm 2 m/s 689 mmHg 91%
    14:00 +6°C° 0,6 mm 1 m/s 689 mmHg 92%
    15:00 +6°C° 0,6 mm 1 m/s 689 mmHg 92%
    16:00 +6°C° 0,6 mm 1 m/s 689 mmHg 93%
    17:00 +5°C° 0,7 mm 1 m/s 689 mmHg 93%
    18:00 +5°C° 0,7 mm 1 m/s 689 mmHg 94%
    19:00 +5°C° 0,7 mm 1 m/s 689 mmHg 94%
    20:00 +5°C° 0,7 mm 1 m/s 690 mmHg 94%
    21:00 +5°C° 0,7 mm 1 m/s 690 mmHg 95%
    22:00 +5°C° 0,7 mm 1 m/s 690 mmHg 95%
    23:00 +5°C° 1,1 mm 1 m/s 691 mmHg 95%

    27 Ianuarie, Sâmbătă

    Timp Temperatura Precipitaţii Vânt Presiune Umiditate
    00:00 +5°C° 1,1 mm 1 m/s 691 mmHg 95%
    01:00 +4°C° 1,1 mm 1 m/s 691 mmHg 95%
    02:00 +4°C° 1,7 mm 1 m/s 691 mmHg 95%
    03:00 +4°C° 1,7 mm 1 m/s 692 mmHg 95%
    04:00 +4°C° 1,7 mm 1 m/s 692 mmHg 95%
    05:00 +4°C° 1,8 mm 1 m/s 692 mmHg 95%
    06:00 +3°C° 1,8 mm 1 m/s 693 mmHg 95%
    07:00 +3°C° 1,8 mm 1 m/s 693 mmHg 94%
    08:00 +3°C° 1,5 mm 1 m/s 694 mmHg 94%
    09:00 +3°C° 1,5 mm 1 m/s 695 mmHg 93%
    10:00 +3°C° 1,5 mm 1 m/s 695 mmHg 92%
    11:00 +3°C° 0,9 mm 1 m/s 696 mmHg 91%
    12:00 +4°C° 0,9 mm 1 m/s 696 mmHg 90%
    13:00 +4°C° 0,9 mm 1 m/s 696 mmHg 89%
    14:00 +4°C° 0,2 mm 1 m/s 697 mmHg 89%
    15:00 +4°C° 0,2 mm 1 m/s 697 mmHg 88%
    16:00 +4°C° 0,2 mm 1 m/s 698 mmHg 88%
    17:00 +3°C° 0 mm 1 m/s 698 mmHg 89%
    18:00 +2°C° 0 mm 1 m/s 699 mmHg 91%
    19:00 +2°C° 0 mm 1 m/s 699 mmHg 92%
    20:00 +1°C° 0 mm 1 m/s 699 mmHg 92%
    21:00 +1°C° 0 mm 1 m/s 700 mmHg 92%
    22:00 0°C° 0 mm 1 m/s 700 mmHg 92%
    23:00 0°C° 0 mm 1 m/s 700 mmHg 92%
    Arată mai mult